Weather History for Darlington, SC

Change the Weather History Date:

Monday, February 3, 2014

  Actual Average (KFLO) Record (KFLO)
Temperature  
Mean Temperature 58 °F 46 °F  
Max Temperature 69 °F 57 °F 85 °F (1989)
Min Temperature 48 °F 36 °F 19 °F (1980)
Degree Days  
Heating Degree Days 6 19  
Month to date heating degree days 57  
Since 1 July heating degree days 1659  
Cooling Degree Days 0 0  
Month to date cooling degree days 0  
Year to date cooling degree days 2  
Growing Degree Days 8 (Base 50)    
Moisture  
Dew Point 53 °F    
Average Humidity 77    
Maximum Humidity 94    
Minimum Humidity 62    
Precipitation  
Precipitation 0.00 in 0.10 in 1.30 in (1959)
Month to date precipitation 0.31  
Year to date precipitation 3.54  
Sea Level Pressure  
Sea Level Pressure 30.03 in    
Wind  
Wind Speed 9 mph (SW)    
Max Wind Speed 20 mph    
Max Gust Speed 23 mph    
Visibility 10 miles    
Events      
T = Trace of Precipitation, MM = Missing Value Source: NWS Daily Summary

Daily Weather History Graph

Daily Weather History Graph

Search for Another Location

Airport:

Trip Planner

Search our weather history database for the weather conditions in past years. The results will help you decide how hot, cold, wet, or windy it might be!

Date:

Astronomy

Feb. 03, 2014 Rise Set
Actual Time 7:15 AM EST 5:51 PM EST
Civil Twilight 6:49 AM EST 6:17 PM EST
Nautical Twilight 6:19 AM EST 6:47 PM EST
Astronomical Twilight 5:50 AM EST 7:17 PM EST
Moon 9:30 AM EST (2/3) 10:25 PM EST (2/3)
Length of Visible Light 11h 28m
Length of Day
10h 35m
Waxing Crescent, 19% of the Moon is Illuminated
Feb 3
Waxing Crescent
Feb 6
First Quarter
Feb 14
Full
Feb 22
Last Quarter
Mar 1
New

Hourly Weather History & Observations

Time (EST) Temp. Dew Point Humidity Pressure Visibility Wind Dir Wind Speed Gust Speed Precip Events Conditions
12:15 AM 48.2 °F 44.6 °F 87% 30.03 in 7.0 mi South 4.6 mph - N/A   Clear
12:35 AM 51.8 °F 46.4 °F 82% 30.03 in 10.0 mi SSW 8.1 mph - N/A   Clear
12:55 AM 53.6 °F 48.2 °F 82% 30.02 in 10.0 mi SSW 6.9 mph - N/A   Clear
1:15 AM 53.6 °F 48.2 °F 82% 30.01 in 10.0 mi South 8.1 mph - N/A   Clear
1:35 AM 53.6 °F 48.2 °F 82% 30.00 in 10.0 mi South 8.1 mph - N/A   Clear
1:55 AM 53.6 °F 48.2 °F 82% 30.00 in 10.0 mi SSW 8.1 mph - N/A   Clear
2:15 AM 51.8 °F 48.2 °F 88% 29.99 in 10.0 mi SSW 6.9 mph - N/A   Clear
2:35 AM 51.8 °F 48.2 °F 88% 29.99 in 10.0 mi SSW 5.8 mph - N/A   Clear
2:55 AM 51.8 °F 46.4 °F 82% 29.99 in 10.0 mi SSW 4.6 mph - N/A   Scattered Clouds
3:15 AM 51.8 °F 48.2 °F 88% 29.99 in 10.0 mi SSW 4.6 mph - N/A   Scattered Clouds
3:35 AM 51.8 °F 46.4 °F 82% 29.98 in 9.0 mi Calm Calm - N/A   Clear
3:55 AM 50.0 °F 46.4 °F 87% 29.97 in 0.8 mi Calm Calm - N/A   Overcast
4:15 AM 50.0 °F 46.4 °F 87% 29.97 in 1.8 mi Calm Calm - N/A   Overcast
4:35 AM 50.0 °F 46.4 °F 87% 29.97 in 6.0 mi South 3.5 mph - N/A   Overcast
4:55 AM 53.6 °F 50.0 °F 88% 29.95 in 10.0 mi South 6.9 mph - N/A   Overcast
5:15 AM 57.2 °F 55.4 °F 94% 29.95 in 10.0 mi SSW 9.2 mph - N/A   Overcast
5:35 AM 59.0 °F 55.4 °F 88% 29.95 in 10.0 mi SSW 9.2 mph - N/A   Overcast
5:55 AM 60.8 °F 57.2 °F 88% 29.95 in 10.0 mi SSW 11.5 mph 16.1 mph N/A   Overcast
6:15 AM 60.8 °F 57.2 °F 88% 29.95 in 10.0 mi SSW 16.1 mph 20.7 mph N/A   Overcast
6:35 AM 62.6 °F 57.2 °F 82% 29.95 in 10.0 mi South 11.5 mph 19.6 mph N/A   Overcast
6:55 AM 62.6 °F 59.0 °F 88% 29.95 in 10.0 mi South 13.8 mph - N/A   Overcast
7:15 AM 64.4 °F 60.8 °F 88% 29.94 in 10.0 mi South 19.6 mph 23.0 mph N/A   Overcast
7:35 AM 64.4 °F 60.8 °F 88% 29.96 in 10.0 mi SSW 13.8 mph - N/A   Overcast
7:55 AM 64.4 °F 60.8 °F 88% 29.96 in 10.0 mi SSW 13.8 mph 19.6 mph N/A   Overcast
8:15 AM 64.4 °F 60.8 °F 88% 29.96 in 10.0 mi SSW 13.8 mph - N/A   Overcast
8:35 AM 64.4 °F 60.8 °F 88% 29.97 in 10.0 mi SSW 12.7 mph 21.9 mph N/A   Overcast
8:55 AM 64.4 °F 60.8 °F 88% 29.97 in 10.0 mi SSW 16.1 mph 19.6 mph N/A   Overcast
9:15 AM 66.2 °F 60.8 °F 83% 29.98 in 10.0 mi SSW 15.0 mph 20.7 mph N/A   Overcast
9:35 AM 66.2 °F 60.8 °F 83% 29.99 in 10.0 mi SSW 15.0 mph 19.6 mph N/A   Overcast
9:55 AM 66.2 °F 60.8 °F 83% 29.99 in 10.0 mi SSW 13.8 mph 21.9 mph N/A   Overcast
10:15 AM 66.2 °F 60.8 °F 83% 30.01 in 10.0 mi WSW 15.0 mph 19.6 mph N/A   Overcast
10:35 AM 66.2 °F 60.8 °F 83% 30.01 in 10.0 mi SW 13.8 mph 17.3 mph N/A   Overcast
10:55 AM 66.2 °F 60.8 °F 83% 30.01 in 10.0 mi SW 17.3 mph 23.0 mph N/A   Overcast
11:15 AM 66.2 °F 60.8 °F 83% 30.01 in 10.0 mi SW 11.5 mph - N/A   Overcast
11:35 AM 68.0 °F 62.6 °F 83% 30.00 in 10.0 mi SW 13.8 mph 18.4 mph N/A   Overcast
11:55 AM 68.0 °F 60.8 °F 78% 29.99 in 10.0 mi SW 12.7 mph - N/A   Overcast
12:15 PM 68.0 °F 60.8 °F 78% 29.99 in 10.0 mi SW 11.5 mph - N/A   Overcast
12:35 PM 69.8 °F 62.6 °F 78% 29.98 in 10.0 mi WSW 15.0 mph 18.4 mph N/A   Overcast
12:55 PM 69.8 °F 60.8 °F 73% 29.96 in 10.0 mi SW 11.5 mph 17.3 mph N/A   Overcast
1:15 PM 69.8 °F 60.8 °F 73% 29.96 in 10.0 mi WSW 12.7 mph - N/A   Overcast
1:35 PM 69.8 °F 60.8 °F 73% 29.96 in 10.0 mi WSW 11.5 mph - N/A   Overcast
1:55 PM 69.8 °F 60.8 °F 73% 29.96 in 10.0 mi WSW 12.7 mph - N/A   Overcast
2:15 PM 69.8 °F 60.8 °F 73% 29.97 in 10.0 mi West 12.7 mph 23.0 mph N/A   Overcast
2:35 PM 69.8 °F 60.8 °F 73% 29.97 in 10.0 mi WSW 13.8 mph - N/A   Overcast
2:55 PM 69.8 °F 60.8 °F 73% 29.98 in 10.0 mi WSW 11.5 mph - N/A   Overcast
3:15 PM 69.8 °F 60.8 °F 73% 29.99 in 10.0 mi West 10.4 mph - N/A   Overcast
3:35 PM 69.8 °F 59.0 °F 68% 29.99 in 10.0 mi WSW 10.4 mph - N/A   Overcast
3:55 PM 69.8 °F 59.0 °F 68% 29.99 in 10.0 mi WSW 9.2 mph - N/A   Mostly Cloudy
4:15 PM 69.8 °F 59.0 °F 68% 30.00 in 10.0 mi WSW 12.7 mph - N/A   Partly Cloudy
4:35 PM 69.8 °F 57.2 °F 64% 30.01 in 10.0 mi WSW 10.4 mph - N/A   Scattered Clouds
4:55 PM 69.8 °F 57.2 °F 64% 30.01 in 10.0 mi WSW 8.1 mph - N/A   Mostly Cloudy
5:15 PM 69.8 °F 57.2 °F 64% 30.02 in 10.0 mi WSW 5.8 mph - N/A   Scattered Clouds
5:35 PM 68.0 °F 55.4 °F 64% 30.03 in 10.0 mi WSW 6.9 mph - N/A   Clear
5:55 PM 66.2 °F 55.4 °F 68% 30.04 in 10.0 mi WSW 4.6 mph - N/A   Mostly Cloudy
6:15 PM 64.4 °F 55.4 °F 73% 30.05 in 10.0 mi NNW 6.9 mph - N/A   Scattered Clouds
6:35 PM 59.0 °F 46.4 °F 63% 30.08 in 10.0 mi North 13.8 mph - N/A   Mostly Cloudy
6:55 PM 57.2 °F 44.6 °F 63% 30.10 in 10.0 mi NNE 12.7 mph 21.9 mph N/A   Overcast
7:15 PM 55.4 °F 44.6 °F 67% 30.11 in 10.0 mi NNE 10.4 mph 16.1 mph N/A   Mostly Cloudy
7:35 PM 55.4 °F 44.6 °F 67% 30.13 in 10.0 mi NNE 9.2 mph - N/A   Mostly Cloudy
7:55 PM 55.4 °F 42.8 °F 63% 30.14 in 10.0 mi NNE 11.5 mph 18.4 mph N/A   Overcast
8:15 PM 55.4 °F 42.8 °F 63% 30.15 in 10.0 mi NNE 12.7 mph 20.7 mph N/A   Overcast
8:35 PM 53.6 °F 41.0 °F 62% 30.16 in 10.0 mi NE 12.7 mph - N/A   Overcast
8:55 PM 53.6 °F 41.0 °F 62% 30.17 in 10.0 mi NE 12.7 mph - N/A   Overcast
9:15 PM 51.8 °F 39.2 °F 62% 30.18 in 10.0 mi NNE 11.5 mph 19.6 mph N/A   Overcast
9:35 PM 51.8 °F 39.2 °F 62% 30.18 in 10.0 mi NNE 10.4 mph - N/A   Mostly Cloudy
9:55 PM 51.8 °F 39.2 °F 62% 30.20 in 10.0 mi NE 12.7 mph 16.1 mph N/A   Overcast
10:15 PM 50.0 °F 39.2 °F 66% 30.20 in 10.0 mi NE 11.5 mph - N/A   Overcast
10:35 PM 48.2 °F 39.2 °F 71% 30.21 in 10.0 mi NNE 10.4 mph - N/A   Overcast
10:55 PM 48.2 °F 37.4 °F 66% 30.21 in 10.0 mi NNE 11.5 mph 16.1 mph N/A   Overcast
11:15 PM 48.2 °F 37.4 °F 66% 30.21 in 10.0 mi NNE 10.4 mph - N/A   Mostly Cloudy
11:35 PM 48.2 °F 37.4 °F 66% 30.22 in 10.0 mi NNE 8.1 mph 16.1 mph N/A   Mostly Cloudy
11:55 PM 48.2 °F 37.4 °F 66% 30.22 in 10.0 mi NE 9.2 mph - N/A   Overcast